Hourly Data Report for October 26, 2015

All times are specified in Local Standard Time (LST). Add 1 hour to adjust for Daylight Saving Time where and when it is observed.

GJOA HAVEN A
NUNAVUT

68°38'08.000" N
95°51'01.000" W
46.90 m
2302337
71597
YHK

Download Data

Hourly Data (October 2015)
Hourly Data Report for October 26, 2015
Temp Definition
°C
Dew Point Temp Definition
°C
Rel Hum Definition
%
Wind Dir Definition
10's deg

Wind Spd Definition
km/h
Visibility Definition
km
Stn Press Definition
kPa
Hmdx Definition


Wind Chill Definition


Weather Definition


TIME
00:00 Legend Double Dagger -13.0 -14.3 90 35 46 0.4 99.82   -25 Heavy Snow,Blowing Snow
01:00 Legend Double Dagger -12.8 -14.1 90 35 45 0.6 99.84   -25 Moderate Snow,Blowing Snow
02:00 Legend Double Dagger -13.0 -14.5 89 35 58 0.8 99.87   -27 Moderate Snow,Blowing Snow
03:00 Legend Double Dagger -13.8 -15.2 89 34 45 1.2 99.93   -26 Snow,Blowing Snow
04:00 Legend Double Dagger -14.0 -15.4 89 33 48 2.4 99.95   -27 Snow,Blowing Snow
05:00 Legend Double Dagger -13.5 -14.8 90 34 41 1.6 100.02   -26 Snow,Blowing Snow
06:00 Legend Double Dagger -13.3 -14.6 90 33 50 2.0 99.95   -26 Snow,Blowing Snow
07:00 Legend Double Dagger -13.4 -14.7 90 33 54 0.6 99.98   -27 Moderate Snow,Blowing Snow
08:00 Legend Double Dagger -13.2 -14.5 90 33 45 1.2 100.05   -26 Snow,Blowing Snow
09:00 Legend Double Dagger -13.3 -14.8 89 33 39 4.8 100.06   -25 Snow
10:00 Legend Double Dagger -13.5 -14.9 89 33 45 2.0 100.05   -26 Snow,Blowing Snow
11:00 Legend Double Dagger -13.9 -15.3 89 33 43 1.2 100.10   -26 Snow,Blowing Snow
12:00 Legend Double Dagger -13.5 -14.9 89 32 52 0.6 100.09   -27 Moderate Snow,Blowing Snow
13:00 Legend Double Dagger -13.3 -14.7 89 32 54 0.6 100.16   -27 Moderate Snow,Blowing Snow
14:00 Legend Double Dagger -13.4 -14.8 89 32 55 0.8 100.19   -27 Moderate Snow,Blowing Snow
15:00 Legend Double Dagger -14.0 -15.4 89 33 45 2.0 100.26   -27 Snow,Blowing Snow
16:00 Legend Double Dagger -13.9 -15.3 89 32 59 1.0 100.20   -28 Snow,Blowing Snow
17:00 Legend Double Dagger -14.0 -15.3 90 32 54 1.2 100.24   -28 Snow,Blowing Snow
18:00 Legend Double Dagger -14.3 -15.7 89 32 55 1.6 100.27   -28 Snow,Blowing Snow
19:00 Legend Double Dagger -14.5 -15.9 89 33 37 4.8 100.37   -26 Snow
20:00 Legend Double Dagger -14.6 -16.0 89 33 43 3.2 100.36   -27 Snow,Blowing Snow
21:00 Legend Double Dagger -15.1 -16.5 89 32 37 8.1 100.40   -27 Snow
22:00 Legend Double Dagger -15.2 -16.6 89 31 43 6.4 100.43   -28 Snow
23:00 Legend Double Dagger -14.9 -16.3 89 32 41 4.0 100.47   -27 Snow,Blowing Snow

Notes on Data Quality.

Legend

  • E = Estimated
  • M = Missing
  • NA = Not Available
  • ‡ = Partner data that is not subject to review by the National Climate Archives
Date modified: